Location: Hains Lake
(37.8540°N, 99.8578°W)
Time: 01:32:29
(UTC+00:00)

Courier 1B Rocket - Visible Passes

Search period start: 01 December 2021 00:00
Search period end: 11 December 2021 00:00
Orbit: 920 x 1202 km, 28.2° (Epoch: 30 November)

Date Brightness Start Highest point End Pass type
(mag) Time Alt. Az. Time Alt. Az. Time Alt. Az.
01 Dec 6.6 11:23:30 18° SSW 11:24:03 18° SSW 11:28:25 10° SSE visible
02 Dec 7.0 10:26:21 16° SSE 10:26:21 16° SSE 10:28:11 10° SSE visible
03 Dec 7.0 11:15:36 13° SSW 11:15:36 13° SSW 11:17:42 10° S visible
08 Dec 7.1 02:21:00 10° SSW 02:22:59 15° S 02:22:59 15° S visible
09 Dec 7.0 01:21:13 10° S 01:24:42 14° SSE 01:25:50 14° SE visible
09 Dec 7.6 03:11:39 10° SW 03:12:12 12° SW 03:12:12 12° SW visible
10 Dec 6.7 02:10:59 10° SW 02:15:02 23° S 02:15:02 23° S visible
